Flag Weather past 2 weeks in Richmond, Virginia, U.S.A.

Now
45 °F

Heavy rain. Fog.


Feels Like: 37 °F
Forecast: 36 / 51 °F
Wind: 18 mph from Northeast

Location: Richmond International Airport

Current Time: Nov 26, 2014 at 8:00:11 AM

Latest Report: Nov 26, 2014 at 7:01 AM


Visibility: 2 mi

Pressure: 29.97 "Hg

Humidity: 93%

Dew point: 43 °F

Location of RichmondLocation

Historic Weather in Richmond — Graph

°F

Richmond temperature yesterday

Maximum temperature yesterday: 65 °F (at 12:54 AM)
Minimum temperature yesterday: 50 °F (at 11:54 PM)
Average temperature yesterday: 58 °F

Past Weeks' High & Low Weather Summary

 TemperatureHumidityPressure
High75 °F (Nov 12, 11:54 AM)97% (Nov 11, 11:54 PM)30.58 "Hg (Nov 11, 11:54 PM)
Low20 °F (Nov 19, 5:54 AM)22% (Nov 21, 12:54 PM)29.56 "Hg (Nov 17, 3:54 PM)
Average46 °F58%30.13 "Hg
* Reported Nov 11 5:54 AM — Nov 26 5:54 AM, Richmond, Weather by CustomWeather, © 2014

Note: Actual official high and low records may vary slightly from our data, if they occured in-between our weather recording intervals... More about our weather records

Advertising

Richmond weather history for previous 24 hours

 ConditionsComfort  
Time TempWeatherWind HumidityBarometerVisibility
5:54 AM
Nov 26
45 °FRain. Fog.13 mph90%30.03 "Hg3 mi
4:54 AM46 °FRain. Fog.10 mph86%30.03 "Hg3 mi
4:01 AM46 °FRain. Fog.9 mph87%30.04 "Hg3 mi
3:54 AM46 °FRain. Fog.9 mph89%30.04 "Hg3 mi
2:54 AM47 °FRain. Fog.10 mph90%30.05 "Hg4 mi
1:54 AM48 °FLight rain. Mostly cloudy.7 mph86%30.10 "Hg9 mi
12:54 AM49 °FLight rain. Mostly cloudy.6 mph84%30.10 "Hg8 mi
11:54 PM
Nov 25
50 °FLight rain. Mostly cloudy.6 mph77%30.12 "Hg10 mi
10:54 PM53 °FLight rain. Overcast.No wind56%30.15 "Hg10 mi
9:54 PM52 °FMostly cloudy.7 mph66%30.15 "Hg10 mi
8:54 PM52 °FMostly cloudy.5 mph66%30.14 "Hg10 mi
7:54 PM53 °FMostly cloudy.No wind64%30.12 "Hg10 mi
6:54 PM54 °FMostly cloudy.3 mph59%30.10 "Hg10 mi
5:54 PM54 °FMostly cloudy.5 mph62%30.10 "Hg10 mi
4:54 PM55 °FMostly cloudy.5 mph59%30.08 "Hg10 mi
3:54 PM58 °FMostly cloudy.3 mph56%30.06 "Hg10 mi
2:54 PM59 °FMore clouds than sun.6 mph49%30.04 "Hg10 mi
1:54 PM59 °FMostly cloudy.7 mph49%30.05 "Hg10 mi
12:54 PM59 °FMore clouds than sun.7 mph54%30.05 "Hg10 mi
11:54 AM59 °FOvercast.8 mph54%30.08 "Hg10 mi
10:54 AM59 °FMostly cloudy.8 mph56%30.07 "Hg10 mi
10:01 AM59 °FMostly cloudy.14 mph63%30.04 "Hg10 mi
9:54 AM59 °FMostly cloudy.15 mph67%30.04 "Hg10 mi
8:54 AM62 °FFog.No wind93%30.01 "Hg5 mi
Weather by CustomWeather, © 2014

See weather overviewHow to use our weather pages